QPF
0.00 0.00 0.00 0.00 0.00 0.00 0.00 0.00 0.00 0.00 0.00 0.00 0.00 0.00 0.00 0.00 0.00 0.00 0.00 0.00 0.00 0.00 0.00 0.00 0.00 0.00 0.00 0.00 0.00 0.00 0.00 0.00 0.00 0.00 0.00 0.00 0.00 0.00 0.00 0.00 0.00 0.00 0.00 0.00 0.00
0.00 0.00 0.00 0.00 0.00 0.00 0.00 0.00 0.00 0.00 0.00 0.00 0.00 0.00 0.00 0.00 0.00 0.00 0.00 0.00 0.00 0.00 0.00 0.00 0.00 0.00 0.00 0.00 0.00 0.00 0.00 0.00 0.00 0.00 0.00 0.00 0.00 0.00 0.00 0.00 0.00 0.00 0.00 0.00 0.00
0.00 0.00 0.00 0.00 0.00 0.00 0.00 0.00 0.00 0.00 0.00 0.00 0.00 0.00 0.00 0.00 0.00 0.00 0.00 0.00 0.00 0.00 0.00 0.00 0.00 0.00 0.00 0.00 0.00 0.00 0.00 0.00 0.00 0.00 0.00 0.00 0.00 0.00 0.00 0.00 0.00 0.00 0.00 0.00 0.00
0.00 0.00 0.00 0.00 0.00 0.00 0.00 0.00 0.00 0.00 0.00 0.00 0.00 0.00 0.00 0.00 0.00 0.00 0.00 0.00 0.00 0.00 0.00 0.00 0.00 0.00 0.00 0.00 0.00 0.00 0.00 0.00 0.00 0.00 0.00 0.00 0.00 0.00 0.00 0.00 0.00 0.00 0.00 0.00 0.00
0.00 0.00 0.00 0.00 0.00 0.00 0.00 0.00 0.00 0.00 0.00 0.00 0.00 0.00 0.00 0.00 0.00 0.00 0.00 0.00 0.00 0.00 0.00 0.00 0.00 0.00 0.00 0.00 0.00 0.00 0.00 0.00 0.00 0.00 0.00 0.00 0.00 0.00 0.00 0.00 0.00 0.00 0.00 0.00 0.00
0.00 0.00 0.00 0.00 0.00 0.00 0.00 0.00 0.00 0.00 0.00 0.00 0.00 0.00 0.00 0.00 0.00 0.00 0.00 0.00 0.00 0.00 0.00 0.00 0.00 0.00 0.00 0.00 0.00 0.00 0.00 0.00 0.00 0.00 0.00 0.00 0.00 0.00 0.00 0.00 0.00 0.00 0.00 0.00 0.00
0.00 0.00 0.00 0.00 0.00 0.00 0.00 0.00 0.00 0.00 0.00 0.00 0.00 0.00 0.00 0.00 0.00 0.00 0.00 0.00 0.00 0.00 0.00 0.00 0.00 0.00 0.00 0.00 0.00 0.00 0.00 0.00 0.00 0.00 0.00 0.00 0.00 0.00 0.00 0.00 0.00 0.00 0.00 0.00 0.00
0.00 0.00 0.00 0.00 0.00 0.00 0.00 0.00 0.00 0.00 0.00 0.00 0.00 0.00 0.00 0.00 0.00 0.00 0.00 0.00 0.00 0.00 0.00 0.00 0.00 0.00 0.00 0.00 0.00 0.00 0.00 0.00 0.00 0.00 0.00 0.00 0.00 0.00 0.00 0.00 0.00 0.00 0.00 0.00 0.00
0.00 0.00 0.00 0.00 0.00 0.00 0.00 0.00 0.00 0.00 0.00 0.00 0.00 0.00 0.00 0.00 0.00 0.00 0.00 0.00 0.00 0.00 0.00 0.00 0.00 0.00 0.00 0.00 0.00 0.00 0.00 0.00 0.00 0.00 0.00 0.00 0.00 0.00 0.00 0.00 0.00 0.00 0.00 0.00 0.00
0.00 0.00 0.00 0.00 0.00 0.00 0.00 0.00 0.00 0.00 0.00 0.00 0.00 0.00 0.00 0.00 0.00 0.00 0.00 0.00 0.00 0.00 0.00 0.00 0.00 0.00 0.00 0.00 0.00 0.00 0.00 0.00 0.00 0.00 0.00 0.00 0.00 0.00 0.00 0.00 0.00 0.00 0.00 0.00 0.00
0.00 0.00 0.00 0.00 0.00 0.00 0.00 0.00 0.00 0.00 0.00 0.00 0.00 0.00 0.00 0.00 0.00 0.00 0.00 0.00 0.00 0.00 0.00 0.00 0.00 0.00 0.00 0.00 0.00 0.00 0.00 0.00 0.00 0.00 0.01 0.00 0.00 0.00 0.00 0.00 0.00 0.00 0.00 0.00 0.00
0.00 0.00 0.00 0.00 0.00 0.00 0.00 0.00 0.00 0.00 0.00 0.00 0.00 0.00 0.00 0.00 0.00 0.00 0.00 0.00 0.00 0.00 0.00 0.00 0.00 0.00 0.00 0.00 0.00 0.00 0.00 0.00 0.00 0.01 0.00 0.00 0.00 0.00 0.00 0.00 0.00 0.00 0.00 0.00 0.00
0.00 0.00 0.00 0.00 0.00 0.00 0.00 0.00 0.00 0.00 0.00 0.00 0.00 0.00 0.00 0.00 0.00 0.00 0.00 0.00 0.00 0.00 0.00 0.00 0.00 0.00 0.00 0.00 0.00 0.00 0.00 0.00 0.00 0.00 0.00 0.00 0.00 0.00 0.00 0.00 0.00 0.00 0.00 0.00 0.00
0.00 0.00 0.00 0.00 0.00 0.00 0.00 0.00 0.00 0.00 0.00 0.00 0.00 0.00 0.00 0.00 0.00 0.00 0.00 0.00 0.00 0.00 0.00 0.00 0.00 0.00 0.00 0.00 0.00 0.00 0.00 0.00 0.00 0.00 0.00 0.00 0.00 0.00 0.00 0.00 0.00 0.00 0.00 0.00 0.00
0.00 0.00 0.00 0.00 0.00 0.00 0.00 0.00 0.00 0.00 0.00 0.00 0.00 0.00 0.00 0.00 0.00 0.00 0.00 0.00 0.00 0.00 0.00 0.00 0.00 0.00 0.00 0.00 0.00 0.00 0.00 0.00 0.00 0.00 0.00 0.00 0.00 0.00 0.00 0.00 0.00 0.00 0.00 0.00 0.00
0.00 0.00 0.00 0.00 0.00 0.00 0.00 0.00 0.00 0.00 0.00 0.00 0.00 0.00 0.00 0.00 0.00 0.00 0.00 0.00 0.00 0.00 0.00 0.00 0.00 0.00 0.00 0.00 0.00 0.00 0.00 0.00 0.00 0.00 0.00 0.00 0.00 0.00 0.00 0.00 0.00 0.00 0.00 0.00 0.00
0.00 0.00 0.00 0.00 0.00 0.00 0.00 0.00 0.00 0.00 0.00 0.00 0.00 0.00 0.00 0.00 0.00 0.00 0.00 0.00 0.00 0.00 0.00 0.00 0.00 0.00 0.00 0.00 0.00 0.00 0.00 0.00 0.00 0.00 0.00 0.00 0.00 0.00 0.00 0.00 0.00 0.00 0.00 0.00 0.00
0.00 0.00 0.00 0.00 0.00 0.00 0.00 0.00 0.00 0.00 0.00 0.00 0.00 0.00 0.00 0.00 0.00 0.00 0.00 0.00 0.00 0.00 0.00 0.00 0.00 0.00 0.00 0.00 0.00 0.00 0.00 0.00 0.00 0.00 0.00 0.00 0.00 0.00 0.00 0.00 0.00 0.00 0.00 0.00 0.00
0.00 0.00 0.00 0.00 0.00 0.00 0.00 0.00 0.00 0.00 0.00 0.00 0.00 0.00 0.00 0.00 0.00 0.00 0.00 0.00 0.00 0.00 0.00 0.00 0.00 0.00 0.00 0.00 0.00 0.00 0.00 0.00 0.00 0.00 0.00 0.00 0.00 0.00 0.00 0.00 0.00 0.00 0.00 0.00 0.00
0.00 0.00 0.00 0.00 0.00 0.00 0.00 0.00 0.00 0.00 0.00 0.00 0.00 0.00 0.00 0.00 0.00 0.00 0.00 0.00 0.00 0.00 0.00 0.00 0.00 0.00 0.00 0.00 0.00 0.00 0.00 0.00 0.00 0.00 0.00 0.00 0.00 0.00 0.00 0.00 0.00 0.00 0.00 0.00 0.00
0.00 0.00 0.00 0.00 0.00 0.00 0.00 0.00 0.00 0.00 0.00 0.00 0.00 0.00 0.00 0.00 0.00 0.00 0.00 0.00 0.00 0.00 0.00 0.00 0.00 0.00 0.00 0.00 0.00 0.00 0.00 0.00 0.00 0.00 0.00 0.00 0.00 0.00 0.00 0.00 0.00 0.00 0.00 0.00 0.00
0.00 0.00 0.00 0.00 0.00 0.00 0.00 0.00 0.00 0.00 0.00 0.00 0.00 0.00 0.00 0.00 0.00 0.00 0.00 0.00 0.00 0.00 0.00 0.00 0.00 0.00 0.00 0.00 0.00 0.00 0.00 0.00 0.00 0.00 0.00 0.00 0.00 0.00 0.00 0.00 0.00 0.00 0.00 0.00 0.00
0.00 0.00 0.00 0.00 0.00 0.00 0.00 0.00 0.00 0.00 0.00 0.00 0.00 0.00 0.00 0.00 0.00 0.00 0.00 0.00 0.00 0.00 0.00 0.00 0.00 0.00 0.00 0.00 0.00 0.00 0.00 0.00 0.00 0.00 0.00 0.00 0.00 0.00 0.00 0.00 0.00 0.00 0.00 0.00 0.00
0.00 0.00 0.00 0.00 0.00 0.00 0.00 0.00 0.00 0.00 0.00 0.00 0.00 0.00 0.00 0.00 0.00 0.00 0.00 0.00 0.00 0.00 0.00 0.00 0.00 0.00 0.00 0.00 0.00 0.00 0.00 0.00 0.00 0.00 0.00 0.00 0.00 0.00 0.00 0.00 0.00 0.00 0.00 0.00 0.00
0.00 0.00 0.00 0.00 0.00 0.00 0.00 0.00 0.00 0.00 0.00 0.00 0.00 0.00 0.00 0.00 0.00 0.00 0.00 0.00 0.00 0.00 0.00 0.00 0.00 0.00 0.00 0.00 0.00 0.00 0.00 0.00 0.00 0.00 0.00 0.00 0.00 0.00 0.00 0.00 0.00 0.00 0.00 0.00 0.00
0.00 0.00 0.00 0.00 0.00 0.00 0.00 0.00 0.00 0.00 0.00 0.00 0.00 0.00 0.00 0.00 0.00 0.00 0.00 0.00 0.00 0.00 0.00 0.00 0.00 0.00 0.00 0.00 0.00 0.00 0.00 0.00 0.00 0.00 0.00 0.00 0.00 0.00 0.00 0.00 0.00 0.00 0.00 0.00 0.00
0.00 0.00 0.00 0.00 0.00 0.00 0.00 0.00 0.00 0.00 0.00 0.00 0.00 0.00 0.00 0.00 0.00 0.00 0.00 0.00 0.00 0.00 0.00 0.00 0.00 0.00 0.00 0.00 0.00 0.00 0.00 0.00 0.00 0.00 0.00 0.00 0.00 0.00 0.00 0.00 0.00 0.00 0.00 0.00 0.00
MSLP
1014.38 1014.11 1013.81 1013.46 1013.08 1012.89 1012.68 1012.42 1012.14 1011.85 1011.42 1011.34 1011.53 1011.23 1010.92 1011.04 1010.76 1010.39 1009.18 1007.18 1007.17 1007.91 1008.36 1009.10 1009.57 1009.70 1009.69 1009.96 1010.17 1010.32 1010.54 1010.35 1009.88 1009.54 1009.08 1009.14 1009.47 1009.86 1010.07 1010.51 1010.78 1011.18 1011.73 1012.36 1013.47
1014.42 1014.12 1013.76 1013.50 1013.13 1012.82 1012.66 1012.45 1012.20 1011.77 1011.25 1011.22 1011.27 1011.00 1010.87 1010.86 1010.52 1009.26 1006.70 1006.59 1006.90 1007.51 1008.38 1008.89 1009.45 1009.76 1009.94 1010.11 1010.34 1010.34 1010.04 1009.23 1008.29 1008.29 1008.50 1008.82 1009.16 1009.76 1010.35 1010.81 1011.09 1011.79 1012.21 1012.77 1013.61
1014.46 1014.17 1013.83 1013.41 1013.06 1012.74 1012.57 1012.28 1012.15 1011.89 1011.21 1010.99 1011.14 1010.82 1010.64 1010.66 1009.83 1006.82 1005.83 1006.48 1006.98 1007.42 1008.02 1008.59 1009.37 1009.68 1009.90 1009.94 1009.93 1009.62 1009.11 1008.07 1007.37 1007.44 1007.69 1008.44 1009.15 1009.50 1010.12 1010.81 1010.76 1011.56 1012.40 1013.17 1013.77
1014.50 1014.10 1013.75 1013.36 1013.00 1012.64 1012.41 1012.16 1011.85 1011.84 1011.33 1010.80 1011.00 1010.73 1010.47 1010.33 1008.42 1006.06 1005.94 1006.55 1007.11 1007.41 1008.09 1008.59 1009.27 1009.51 1009.57 1009.36 1008.78 1008.73 1007.81 1007.51 1006.89 1006.84 1007.63 1008.12 1008.82 1009.40 1009.70 1009.80 1010.14 1011.07 1012.06 1012.86 1013.59
1014.54 1014.17 1013.76 1013.30 1012.94 1012.57 1012.20 1012.00 1011.72 1011.61 1011.29 1010.75 1010.84 1010.54 1010.30 1009.34 1006.94 1006.08 1006.13 1006.82 1007.49 1007.83 1008.02 1008.14 1008.59 1008.87 1008.97 1008.75 1008.44 1008.25 1007.20 1006.70 1006.37 1006.89 1007.27 1007.78 1008.35 1008.89 1009.55 1009.61 1010.16 1011.20 1012.23 1012.86 1013.30
1014.53 1013.98 1013.66 1013.34 1012.91 1012.50 1012.13 1011.76 1011.51 1011.42 1011.22 1010.74 1010.48 1010.54 1009.94 1007.95 1005.56 1005.97 1006.22 1007.17 1007.33 1007.73 1007.72 1007.82 1007.79 1008.04 1008.48 1008.24 1008.02 1007.57 1007.11 1006.63 1006.68 1007.23 1007.56 1008.10 1008.66 1009.11 1009.58 1009.89 1010.54 1011.23 1012.04 1012.63 1012.96
1014.53 1014.12 1013.62 1013.19 1012.88 1012.57 1012.05 1011.56 1011.29 1011.20 1011.03 1010.77 1010.27 1010.22 1009.32 1006.55 1005.68 1006.16 1006.40 1006.95 1007.25 1007.50 1007.70 1007.61 1007.60 1008.00 1007.93 1007.83 1007.56 1007.26 1007.16 1006.87 1007.21 1007.37 1007.77 1008.16 1009.09 1009.00 1009.37 1009.88 1010.57 1011.20 1011.78 1012.32 1012.55
1014.52 1014.15 1013.65 1013.18 1012.70 1012.38 1012.07 1011.49 1010.95 1010.87 1010.81 1010.63 1010.51 1010.00 1007.96 1005.90 1005.68 1006.15 1006.63 1007.04 1007.39 1007.56 1007.61 1007.40 1007.36 1007.49 1007.67 1007.58 1007.49 1007.66 1007.78 1007.98 1007.82 1007.60 1007.73 1008.08 1008.75 1009.07 1009.37 1009.86 1010.52 1010.95 1011.39 1011.85 1012.18
1014.50 1014.12 1013.58 1013.14 1012.77 1012.30 1011.89 1011.25 1010.58 1010.53 1010.60 1010.45 1010.46 1009.81 1007.48 1005.93 1005.93 1005.68 1006.01 1006.40 1006.82 1007.18 1007.21 1007.08 1007.22 1007.75 1007.76 1007.94 1008.22 1008.36 1008.60 1008.58 1008.17 1007.87 1007.96 1008.43 1008.59 1008.84 1009.34 1009.92 1010.46 1010.85 1011.02 1011.26 1011.69
1014.37 1014.04 1013.52 1012.98 1012.66 1012.28 1011.65 1011.06 1010.61 1010.42 1010.39 1010.33 1009.91 1009.44 1007.35 1005.84 1005.26 1005.47 1005.82 1006.24 1006.53 1006.87 1007.49 1007.48 1007.97 1008.38 1008.80 1008.93 1009.10 1008.93 1008.76 1008.58 1008.33 1008.15 1008.01 1008.49 1008.71 1009.12 1009.56 1009.85 1010.01 1010.41 1010.72 1010.98 1011.21
1014.28 1013.78 1013.36 1012.90 1012.55 1012.32 1011.57 1011.20 1011.25 1010.61 1010.07 1008.76 1008.23 1007.65 1006.51 1005.54 1004.99 1005.27 1005.65 1006.04 1006.46 1006.81 1007.43 1007.72 1008.25 1008.31 1008.49 1008.62 1008.46 1008.73 1008.82 1008.61 1007.89 1008.09 1008.13 1008.43 1008.85 1009.13 1009.44 1010.06 1010.22 1010.43 1010.49 1010.59 1010.69
1014.08 1013.61 1013.09 1012.78 1012.44 1012.22 1012.22 1011.08 1009.52 1009.09 1008.85 1007.69 1007.47 1007.05 1006.27 1005.85 1005.66 1005.25 1005.32 1006.11 1006.63 1006.97 1007.35 1007.91 1007.78 1007.56 1007.60 1008.01 1008.22 1008.57 1008.73 1008.31 1007.55 1007.68 1008.19 1008.69 1008.58 1008.72 1009.11 1009.07 1009.21 1009.55 1009.92 1009.96 1010.30
1013.89 1013.32 1012.83 1012.34 1011.98 1012.00 1011.39 1009.71 1008.80 1008.51 1008.74 1007.14 1006.70 1006.28 1005.58 1005.67 1005.44 1005.09 1005.22 1005.65 1006.26 1007.03 1007.26 1007.63 1006.90 1006.69 1006.88 1007.28 1008.16 1008.55 1008.24 1007.98 1007.54 1007.94 1008.40 1008.92 1008.78 1008.34 1008.29 1008.46 1008.91 1009.16 1009.18 1009.48 1009.75
1013.67 1013.04 1012.47 1011.98 1011.98 1011.52 1010.45 1008.81 1008.68 1008.57 1008.61 1006.87 1006.02 1004.85 1005.06 1004.98 1004.86 1004.33 1004.61 1005.13 1005.95 1006.49 1007.16 1007.14 1006.38 1006.26 1006.29 1006.52 1007.11 1008.11 1007.28 1007.37 1007.81 1008.82 1009.32 1009.45 1009.34 1008.16 1007.83 1007.94 1008.18 1008.28 1008.42 1008.53 1009.09
1013.36 1012.87 1012.45 1012.25 1011.95 1011.04 1009.30 1008.80 1008.63 1008.63 1008.14 1006.03 1005.07 1004.12 1004.52 1004.69 1004.53 1004.33 1004.28 1004.71 1005.57 1006.08 1006.76 1006.41 1005.99 1005.71 1005.79 1005.92 1006.56 1006.87 1007.03 1007.34 1008.47 1009.59 1009.94 1010.09 1010.38 1007.89 1007.70 1007.74 1007.16 1007.16 1007.12 1007.35 1008.02
1012.84 1012.46 1012.20 1012.19 1011.98 1009.46 1008.92 1008.74 1008.69 1008.87 1006.99 1005.23 1004.43 1004.25 1004.57 1004.56 1004.46 1004.45 1004.40 1004.60 1005.08 1005.99 1006.27 1006.22 1005.67 1005.39 1005.00 1005.19 1005.67 1006.19 1007.49 1009.05 1010.07 1010.80 1011.53 1010.13 1010.31 1007.54 1007.35 1006.15 1005.77 1006.35 1006.22 1006.41 1007.10
1012.21 1011.80 1011.86 1011.02 1009.97 1009.03 1008.89 1008.96 1009.34 1008.54 1006.24 1005.30 1004.62 1004.47 1004.57 1004.78 1004.64 1004.61 1004.87 1005.23 1005.94 1006.66 1007.08 1006.37 1005.61 1004.86 1004.58 1005.14 1005.55 1006.34 1008.27 1010.02 1011.46 1012.06 1011.29 1010.24 1010.06 1007.25 1005.48 1005.40 1004.82 1004.86 1005.07 1005.77 1006.33
1011.27 1010.69 1010.37 1009.78 1009.06 1009.06 1009.05 1009.21 1009.26 1007.35 1006.12 1004.87 1004.62 1004.76 1004.91 1004.84 1004.92 1005.08 1005.40 1006.00 1006.31 1006.86 1007.58 1007.09 1005.88 1004.96 1004.37 1004.59 1005.05 1006.30 1007.70 1009.20 1010.77 1011.89 1011.07 1010.33 1008.93 1006.06 1005.17 1004.80 1004.50 1004.63 1005.14 1005.72 1006.07
1010.67 1010.36 1010.28 1008.49 1008.73 1009.24 1009.21 1009.64 1008.32 1007.09 1005.83 1005.07 1004.75 1004.93 1005.14 1004.96 1005.14 1005.45 1005.83 1006.12 1006.14 1006.46 1007.15 1007.27 1006.41 1004.73 1004.48 1004.36 1004.65 1006.34 1007.59 1008.45 1010.06 1011.61 1011.56 1009.98 1008.15 1005.94 1005.13 1005.67 1005.56 1005.66 1005.79 1006.10 1006.21
1011.26 1010.41 1009.31 1008.22 1008.51 1008.96 1009.19 1009.23 1008.09 1006.77 1005.66 1005.05 1004.79 1004.68 1005.24 1005.32 1005.71 1005.80 1005.74 1005.14 1005.49 1005.66 1005.68 1007.08 1006.81 1005.12 1004.54 1004.55 1005.13 1005.64 1007.25 1008.65 1010.11 1011.45 1011.48 1010.12 1008.82 1007.72 1006.80 1006.64 1006.75 1006.86 1006.90 1006.83 1006.55
1011.02 1010.24 1008.90 1008.40 1008.78 1009.14 1009.60 1009.11 1007.65 1006.24 1005.80 1005.17 1004.77 1004.85 1005.00 1005.23 1005.56 1005.88 1005.74 1005.15 1005.19 1005.67 1005.92 1006.94 1007.33 1006.08 1005.17 1005.34 1005.54 1006.44 1007.29 1009.06 1010.43 1011.24 1011.50 1010.96 1009.41 1008.20 1008.03 1007.43 1007.57 1007.77 1007.71 1007.58 1007.23
1011.08 1010.38 1008.96 1008.88 1009.24 1010.12 1009.65 1008.52 1007.39 1006.26 1005.63 1005.20 1004.84 1004.84 1004.96 1005.25 1005.76 1006.09 1005.88 1005.60 1005.39 1005.61 1006.29 1006.49 1007.39 1007.41 1006.72 1006.01 1005.98 1006.14 1007.26 1008.61 1010.37 1011.50 1011.75 1011.35 1009.47 1008.72 1008.42 1008.17 1008.35 1008.58 1008.56 1008.66 1008.41
1011.88 1010.88 1009.01 1008.83 1009.66 1010.02 1009.30 1008.29 1007.29 1006.54 1005.84 1005.37 1005.14 1004.91 1005.14 1005.62 1006.13 1006.04 1005.89 1005.51 1005.49 1005.64 1005.97 1006.46 1007.49 1008.14 1007.73 1007.18 1006.43 1006.78 1007.41 1008.47 1009.57 1010.57 1011.32 1011.37 1009.74 1009.35 1009.46 1009.61 1009.62 1009.49 1009.66 1009.98 1009.46
1012.38 1011.79 1010.54 1009.95 1010.19 1009.75 1009.34 1008.44 1007.47 1006.30 1005.96 1005.60 1005.46 1005.24 1005.71 1006.28 1006.38 1006.50 1006.40 1005.94 1005.94 1006.20 1006.26 1006.47 1007.83 1007.85 1007.63 1007.06 1006.93 1007.35 1007.65 1008.36 1009.06 1010.46 1011.15 1010.83 1010.16 1010.33 1010.61 1010.77 1010.70 1010.50 1010.93 1011.13 1010.91
1012.99 1013.39 1012.79 1011.59 1011.13 1010.47 1009.67 1008.82 1007.78 1006.97 1006.36 1006.11 1006.23 1006.04 1006.12 1006.93 1007.01 1007.07 1007.00 1006.73 1006.40 1006.67 1006.98 1007.41 1008.45 1008.41 1007.92 1007.35 1007.16 1007.46 1007.88 1008.47 1009.10 1009.82 1010.35 1010.34 1010.76 1011.21 1011.77 1012.05 1011.75 1011.61 1011.98 1012.02 1012.43
1014.35 1014.32 1013.17 1012.47 1011.70 1010.80 1010.16 1009.09 1008.11 1007.41 1007.19 1006.65 1006.52 1006.61 1006.59 1007.06 1006.97 1007.31 1007.47 1007.51 1007.48 1007.45 1007.94 1008.62 1009.37 1009.32 1009.23 1008.46 1007.92 1008.22 1008.56 1009.01 1009.61 1010.41 1010.68 1010.93 1011.37 1011.67 1012.32 1012.52 1012.73 1012.91 1012.85 1013.21 1013.65
1015.05 1014.59 1014.14 1013.37 1012.47 1011.58 1010.87 1009.78 1008.65 1007.94 1007.48 1007.14 1007.13 1007.15 1007.45 1007.45 1007.42 1007.57 1007.71 1007.86 1008.03 1008.46 1008.97 1009.52 1010.10 1010.61 1010.55 1009.85 1009.38 1009.55 1009.39 1009.78 1010.61 1011.26 1011.48 1011.78 1012.36 1012.31 1012.80 1013.71 1014.06 1014.27 1014.25 1014.36 1014.46
Thickness
5774 5777 5779 5782 5786 5787 5788 5790 5793 5795 5799 5799 5802 5804 5807 5806 5808 5810 5812 5833 5835 5829 5825 5817 5811 5808 5808 5797 5799 5796 5766 5759 5767 5769 5782 5795 5789 5800 5805 5795 5800 5803 5800 5800 5796
5775 5778 5782 5784 5787 5790 5791 5792 5794 5798 5803 5802 5804 5808 5810 5809 5810 5814 5844 5846 5844 5836 5823 5814 5803 5804 5794 5794 5792 5782 5768 5778 5798 5797 5792 5798 5798 5794 5790 5790 5792 5790 5799 5802 5798
5776 5779 5782 5786 5789 5792 5793 5795 5796 5798 5804 5806 5806 5810 5813 5813 5813 5831 5853 5849 5845 5839 5833 5825 5813 5806 5793 5798 5794 5792 5780 5800 5811 5811 5811 5804 5801 5806 5792 5783 5796 5790 5792 5795 5794
5775 5779 5783 5787 5791 5794 5796 5798 5800 5800 5804 5808 5809 5811 5815 5815 5798 5845 5853 5849 5846 5842 5834 5823 5811 5802 5794 5793 5808 5793 5809 5810 5817 5821 5811 5806 5809 5801 5804 5805 5813 5806 5804 5800 5794
5775 5778 5782 5787 5791 5795 5799 5801 5802 5803 5805 5810 5810 5813 5816 5816 5822 5850 5852 5847 5842 5838 5830 5824 5810 5806 5797 5806 5810 5801 5817 5825 5825 5819 5816 5818 5810 5809 5806 5817 5819 5809 5804 5800 5799
5774 5779 5783 5786 5791 5795 5799 5803 5804 5805 5807 5811 5813 5814 5818 5809 5855 5853 5853 5844 5841 5836 5833 5829 5822 5819 5809 5812 5812 5819 5820 5825 5824 5819 5817 5807 5807 5810 5809 5816 5812 5809 5804 5802 5803
5774 5778 5782 5787 5790 5794 5799 5804 5806 5807 5809 5812 5816 5817 5817 5826 5856 5851 5851 5843 5842 5838 5829 5834 5834 5818 5819 5814 5828 5824 5813 5819 5816 5817 5813 5815 5797 5802 5815 5817 5810 5810 5808 5806 5808
5772 5776 5781 5786 5791 5795 5799 5805 5810 5810 5811 5814 5815 5818 5815 5854 5857 5851 5848 5839 5840 5839 5835 5838 5838 5829 5823 5829 5820 5808 5801 5780 5808 5816 5818 5812 5778 5809 5817 5815 5808 5811 5812 5811 5811
5771 5775 5780 5786 5790 5795 5800 5806 5812 5813 5813 5815 5815 5816 5816 5854 5843 5854 5852 5840 5839 5839 5841 5846 5838 5820 5820 5804 5789 5793 5775 5781 5794 5815 5813 5806 5793 5811 5815 5813 5810 5810 5813 5815 5814
5771 5774 5779 5786 5790 5794 5801 5806 5810 5813 5814 5815 5817 5810 5828 5832 5849 5850 5851 5845 5837 5835 5825 5824 5813 5800 5791 5785 5761 5778 5781 5788 5790 5805 5807 5800 5800 5807 5811 5810 5814 5814 5814 5814 5815
5769 5775 5779 5784 5789 5793 5800 5804 5802 5803 5809 5815 5820 5821 5830 5847 5856 5847 5848 5838 5836 5827 5803 5813 5794 5785 5795 5800 5807 5794 5784 5784 5799 5808 5805 5799 5796 5804 5811 5807 5807 5811 5814 5816 5817
5769 5774 5779 5784 5788 5791 5792 5802 5812 5816 5798 5823 5822 5822 5833 5841 5824 5840 5851 5824 5816 5798 5810 5796 5784 5808 5815 5805 5802 5794 5786 5784 5805 5812 5807 5799 5801 5811 5813 5815 5818 5818 5818 5821 5820
5767 5774 5779 5785 5789 5791 5797 5808 5818 5820 5793 5812 5821 5822 5831 5834 5820 5826 5838 5826 5812 5798 5799 5786 5806 5825 5819 5808 5790 5786 5788 5790 5799 5807 5809 5802 5796 5808 5820 5823 5820 5822 5826 5826 5825
5767 5773 5779 5785 5790 5792 5797 5814 5815 5816 5767 5795 5811 5827 5831 5833 5820 5844 5844 5830 5813 5799 5796 5794 5816 5817 5815 5810 5803 5769 5815 5814 5806 5790 5772 5801 5764 5804 5816 5816 5820 5824 5825 5829 5828
5768 5773 5777 5780 5785 5793 5809 5811 5814 5806 5738 5806 5813 5845 5834 5821 5826 5829 5846 5831 5804 5805 5802 5797 5809 5812 5807 5814 5814 5802 5816 5818 5807 5786 5785 5784 5768 5800 5813 5808 5817 5828 5834 5838 5836
5770 5774 5778 5779 5780 5803 5809 5810 5806 5758 5741 5799 5817 5813 5811 5817 5820 5825 5827 5836 5828 5807 5808 5803 5825 5823 5820 5829 5824 5829 5800 5785 5773 5769 5747 5782 5775 5799 5801 5821 5834 5832 5841 5844 5843
5773 5777 5779 5786 5799 5805 5807 5801 5753 5736 5798 5795 5800 5808 5804 5800 5808 5814 5806 5800 5786 5774 5775 5796 5809 5824 5833 5816 5824 5814 5781 5743 5744 5739 5743 5775 5773 5805 5836 5838 5843 5843 5851 5849 5848
5778 5784 5788 5794 5801 5803 5801 5776 5744 5774 5781 5810 5804 5799 5790 5800 5802 5802 5793 5782 5797 5786 5763 5767 5768 5813 5831 5821 5808 5807 5790 5753 5751 5737 5758 5779 5774 5815 5846 5849 5857 5855 5854 5852 5850
5778 5782 5784 5800 5800 5796 5785 5744 5753 5772 5799 5798 5800 5790 5789 5800 5801 5797 5786 5781 5792 5793 5772 5759 5773 5823 5827 5832 5829 5805 5786 5799 5757 5750 5747 5768 5798 5835 5847 5840 5845 5846 5849 5848 5851
5765 5777 5787 5798 5797 5792 5768 5750 5767 5787 5801 5801 5787 5794 5773 5787 5783 5786 5787 5808 5804 5807 5813 5790 5770 5817 5825 5830 5824 5821 5808 5780 5759 5759 5761 5765 5782 5796 5817 5826 5836 5834 5836 5841 5849
5763 5774 5785 5790 5788 5775 5750 5752 5773 5792 5796 5794 5792 5790 5789 5790 5786 5779 5793 5807 5815 5807 5812 5790 5780 5795 5818 5805 5803 5798 5791 5768 5764 5753 5746 5743 5774 5814 5813 5826 5835 5831 5835 5839 5844
5754 5757 5775 5778 5757 5738 5748 5763 5780 5787 5796 5794 5798 5794 5790 5794 5788 5783 5787 5795 5814 5810 5795 5801 5776 5770 5793 5811 5811 5813 5802 5780 5758 5765 5740 5742 5767 5810 5816 5826 5828 5827 5831 5834 5838
5738 5742 5767 5769 5738 5738 5751 5765 5774 5777 5781 5787 5787 5795 5799 5789 5781 5790 5794 5813 5811 5810 5799 5801 5772 5754 5767 5785 5805 5800 5802 5780 5767 5757 5748 5749 5771 5808 5809 5810 5816 5817 5819 5819 5826
5729 5731 5740 5742 5736 5744 5749 5753 5760 5779 5776 5783 5784 5791 5784 5779 5777 5781 5784 5803 5807 5806 5808 5803 5767 5772 5760 5774 5789 5788 5797 5789 5783 5757 5756 5754 5781 5790 5792 5795 5801 5805 5805 5806 5809
5713 5709 5713 5720 5726 5732 5740 5742 5750 5755 5766 5770 5768 5772 5772 5764 5769 5770 5775 5783 5799 5794 5796 5790 5769 5776 5780 5790 5792 5790 5790 5791 5791 5779 5778 5782 5774 5777 5778 5779 5786 5792 5791 5792 5790
5696 5697 5701 5705 5708 5724 5718 5736 5742 5748 5749 5759 5760 5759 5763 5757 5766 5759 5768 5771 5773 5785 5782 5772 5755 5768 5762 5773 5781 5772 5778 5773 5771 5764 5775 5767 5763 5772 5771 5773 5773 5774 5778 5774 5772
5679 5685 5689 5693 5698 5707 5710 5720 5734 5742 5748 5753 5752 5750 5747 5756 5766 5771 5770 5768 5772 5770 5763 5758 5746 5743 5741 5750 5761 5750 5763 5759 5752 5751 5754 5758 5753 5763 5760 5754 5752 5753 5757 5757 5758